"2010-04-03 00:00:00",1817557,1.308,171,8.06,0.207,3.052,101.2207,2.414,3.49,27.73,0,109.9,13.52,3.17,133.0
"2010-04-03 00:00:30",1817558,2.838,196.3,12.97,1.29,6.086,101.2207,2.414,3.622,27.46,0,110,13.48,3.17,158.3
"2010-04-03 00:01:00",1817559,2.705,206.2,8.35,1.163,3.936,101.2207,2.414,3.467,27.35,0,109.9,13.48,3.17,168.2
"2010-04-03 00:01:30",1817560,2.493,208.4,5.035,1.184,4.306,101.2207,2.414,3.478,27.48,0,109.9,13.48,3.17,170.4
"2010-04-03 00:02:00",1817561,2.044,220,9.14,1.178,4.066,101.2207,2.414,3.534,27.68,0,109.9,13.49,3.17,182.0
"2010-04-03 00:02:30",1817562,1.865,219.2,5.703,0.52,2.162,101.2207,2.414,3.397,27.73,0,109.9,13.49,3.17,181.2
"2010-04-03 00:03:00",1817563,3.049,231.6,8.18,1.291,4.463,101.2207,2.414,3.52,27.93,0,109.9,13.49,3.17,193.6
"2010-04-03 00:03:30",1817564,2.97,226.9,9.36,1.431,4.818,101.2207,2.414,3.581,28.12,0,109.9,13.49,3.17,188.9
"2010-04-03 00:04:00",1817565,3.435,233.2,8.14,1.244,5.523,101.2207,2.414,3.656,28.34,0,109.9,13.49,3.17,195.2
"2010-04-03 00:04:30",1817566,3.278,227.1,6.321,1.27,5.332,101.2165,2.403,3.605,28.47,0,109.9,13.49,3.16,189.1
"2010-04-03 00:05:00",1817567,2.862,220.8,8.05,1.319,4.743,101.2114,2.39,3.536,28.64,0,109.9,13.49,3.15,182.8
"2010-04-03 00:05:30",1817568,1.339,212.2,3.258,0.205,2.255,101.1964,2.352,3.495,28.81,0,109.9,13.52,3.11,174.2
"2010-04-03 00:06:00",1817569,1.774,208.4,3.16,0.11,1.93,101.1882,2.331,3.406,28.77,0,109.9,13.52,3.09,170.4
"2010-04-03 00:06:30",1817570,3.186,212.3,9.08,1.304,4.218,101.1868,2.328,3.519,29.1,0,109.9,13.49,3.09,174.3
"2010-04-03 00:07:00",1817571,2.801,216.2,8.2,1.273,4.912,101.1868,2.328,3.591,29.36,0,109.9,13.49,3.09,178.2
"2010-04-03 00:07:30",1817572,3.215,217.8,5.397,1.1,6.252,101.1868,2.328,3.662,29.46,0,109.9,13.49,3.09,179.8
"2010-04-03 00:08:00",1817573,2.798,211.7,7.293,1.103,5.747,101.1868,2.328,3.593,29.23,0,109.9,13.49,3.09,173.7
"2010-04-03 00:08:30",1817574,2.251,207.6,9.29,1.222,3.978,101.188,2.33,3.501,28.92,0,109.9,13.48,3.09,169.6
"2010-04-03 00:09:00",1817575,1.317,199.9,5.985,0.108,1.729,101.1869,2.328,3.384,28.8,0,109.9,13.52,3.09,161.9
"2010-04-03 00:09:30",1817576,1.522,213,6.464,0.209,1.664,101.1804,2.311,3.392,28.75,0,109.9,13.52,3.07,175.0
"2010-04-03 00:10:00",1817577,1.944,204.1,10.88,0.463,2.23,101.1672,2.277,3.429,28.54,0,109.9,13.49,3.04,166.1
"2010-04-03 00:10:30",1817578,3.315,227.9,12.72,1.221,6.146,101.1687,2.281,3.595,28.7,0,109.9,13.49,3.04,189.9
"2010-04-03 00:11:00",1817579,3.301,260.9,9.96,1.171,5.746,101.1659,2.274,3.44,28.48,0,109.9,13.49,3.03,222.9
"2010-04-03 00:11:30",1817580,3.277,261.4,9.68,1.146,5.799,101.1515,2.237,3.564,28.55,0,109.9,13.5,3.00,223.4
"2010-04-03 00:12:00",1817581,2.151,255.4,12,1.295,3.651,101.147,2.226,3.4,28.48,0,109.9,13.5,2.99,217.4
"2010-04-03 00:12:30",1817582,0.621,254.8,16.05,0.166,1.629,101.1513,2.237,3.261,28.38,0,109.8,13.53,3.00,216.8
"2010-04-03 00:13:00",1817583,0.53,234.9,25.05,0.24,1.007,101.1525,2.24,3.258,28.42,0,109.9,13.53,3.00,196.9
"2010-04-03 00:13:30",1817584,0.865,186.8,14.17,0.115,1.431,101.1533,2.242,3.249,28.34,0,109.8,13.53,3.00,148.8
"2010-04-03 00:14:00",1817585,1.678,227.2,26.39,1.212,4.487,101.153,2.241,3.435,28.46,0,109.8,13.51,3.00,189.2
"2010-04-03 00:14:30",1817586,2.106,223.6,18.5,1.277,4.778,101.153,2.241,3.437,28.47,0,109.9,13.51,3.00,185.6
"2010-04-03 00:15:00",1817587,0.973,224.6,13.03,0.185,1.875,101.1522,2.239,3.253,28.32,0,109.8,13.54,3.00,186.6
"2010-04-03 00:15:30",1817588,2.665,248.1,19.56,1.402,4.704,101.1446,2.22,3.419,28.52,0,109.9,13.5,2.98,210.1
"2010-04-03 00:16:00",1817589,2.215,238.5,18.68,1.31,4.596,101.1341,2.193,3.405,28.54,0,109.8,13.51,2.95,200.5
"2010-04-03 00:16:30",1817590,0.727,233.2,9.23,0.31,1.609,101.1265,2.173,3.199,28.34,0,109.8,13.54,2.93,195.2
"2010-04-03 00:17:00",1817591,1.305,236.8,5.03,0.107,1.35,101.1211,2.16,3.197,28.66,0,109.8,13.54,2.92,198.8
"2010-04-03 00:17:30",1817592,0.992,236.1,7.416,0.146,1.734,101.12,2.157,3.242,28.8,0,109.8,13.54,2.92,198.1
"2010-04-03 00:18:00",1817593,2.382,266.6,7.945,1.197,5.901,101.1205,2.158,3.416,28.98,0,109.8,13.51,2.92,228.6
"2010-04-03 00:18:30",1817594,2.002,288.1,11.86,1.336,4.646,101.1256,2.171,3.317,28.84,0,109.8,13.51,2.93,250.1
"2010-04-03 00:19:00",1817595,0.795,235.9,13.76,0.205,1.895,101.1307,2.184,3.194,28.76,0,109.8,13.55,2.94,197.9
"2010-04-03 00:19:30",1817596,2.168,264.1,25.41,1.325,5.009,101.1429,2.215,3.441,28.96,0,109.8,13.51,2.98,226.1
"2010-04-03 00:20:00",1817597,1.781,294.8,11.37,1.286,3.718,101.1511,2.236,3.335,28.73,0,109.8,13.51,3.00,256.8
"2010-04-03 00:20:30",1817598,0.468,280.9,9.73,0.139,1.748,101.1533,2.242,3.206,28.55,0,109.8,13.54,3.00,242.9
"2010-04-03 00:21:00",1817599,-0.032,201.7,38.58,0.069,1.193,101.1533,2.242,3.216,28.58,0,109.8,13.54,3.00,163.7
"2010-04-03 00:21:30",1817600,-0.032,117.5,29.37,0.065,0.929,101.1533,2.242,3.232,28.54,0,109.8,13.55,3.00,79.5
"2010-04-03 00:22:00",1817601,0.033,70.78,63.04,0.159,1.193,101.1533,2.242,3.243,28.57,0,109.8,13.55,3.00,32.8
"2010-04-03 00:22:30",1817602,0.204,69.18,26.68,0.777,2.17,101.1533,2.242,3.251,28.59,0,109.8,13.51,3.00,31.2
"2010-04-03 00:23:00",1817603,1.503,294.2,56.94,1.251,5.299,101.1533,2.242,3.439,28.8,0,109.8,13.51,3.00,256.2
"2010-04-03 00:23:30",1817604,0.776,262.4,19.63,1.07,3.196,101.1539,2.243,3.43,28.81,0,109.8,13.51,3.00,224.4
"2010-04-03 00:24:00",1817605,1.097,228.1,8.9,0.538,1.008,101.1641,2.269,3.256,28.7,0,109.8,13.54,3.03,190.1
"2010-04-03 00:24:30",1817606,1.22,218.6,9.12,0.29,1.123,101.1731,2.293,3.258,29.1,0,109.8,13.54,3.05,180.6
"2010-04-03 00:25:00",1817607,3.032,232.1,9.93,1.289,5.01,101.1757,2.299,3.506,29.8,0,109.8,13.51,3.06,194.1
"2010-04-03 00:25:30",1817608,2.853,246.8,9.9,1.114,4.733,101.1807,2.312,3.45,29.26,0,109.8,13.5,3.07,208.8
"2010-04-03 00:26:00",1817609,1.041,256.2,8.97,0.155,1.728,101.1799,2.31,3.26,29.1,0,109.8,13.53,3.07,218.2
"2010-04-03 00:26:30",1817610,0.959,244.4,16.15,0.206,1.496,101.1833,2.318,3.27,28.82,0,109.8,13.53,3.08,206.4
"2010-04-03 00:27:00",1817611,2.089,235.8,12.83,1.45,3.208,101.1872,2.329,3.412,29.76,0,109.8,13.5,3.09,197.8
"2010-04-03 00:27:30",1817612,3.327,250.1,6.976,1.197,5.079,101.1872,2.329,3.483,29.62,0,109.8,13.5,3.09,212.1
"2010-04-03 00:28:00",1817613,1.534,249.3,6.925,0.984,2.587,101.1872,2.329,3.412,29.57,0,109.8,13.51,3.09,211.3
"2010-04-03 00:28:30",1817614,1.25,257.9,7.857,0.098,1.716,101.1872,2.329,3.352,29.29,0,109.8,13.54,3.09,219.9
"2010-04-03 00:29:00",1817615,3.059,267.2,7.829,1.221,5.595,101.1932,2.344,3.527,29.2,0,109.8,13.51,3.10,229.2
"2010-04-03 00:29:30",1817616,2.422,258.7,13.52,1.236,3.998,101.2152,2.4,3.428,28.8,0,109.8,13.51,3.16,220.7
"2010-04-03 00:30:00",1817617,1.254,243.7,7.554,0.195,1.343,101.2212,2.415,3.335,28.6,0,109.8,13.54,3.18,205.7
"2010-04-03 00:30:30",1817618,1.608,240.1,5.997,0.172,1.167,101.2212,2.415,3.369,28.5,0,109.8,13.54,3.18,202.1
"2010-04-03 00:31:00",1817619,2.599,244.1,10.4,1,2.966,101.2288,2.435,3.513,28.32,0,109.9,13.51,3.20,206.1
"2010-04-03 00:31:30",1817620,3.203,246.2,11.43,1.177,5.481,101.252,2.494,3.615,28.46,0,109.8,13.51,3.25,208.2
"2010-04-03 00:32:00",1817621,1.568,221.1,8.29,0.648,1.94,101.2551,2.502,3.442,28.28,0,109.8,13.51,3.26,183.1
"2010-04-03 00:32:30",1817622,2.419,201.8,5.262,1.149,3.383,101.2562,2.505,3.606,28.67,0,109.9,13.5,3.27,163.8
"2010-04-03 00:33:00",1817623,2.862,195.2,11.45,1.087,5.825,101.2822,2.571,3.648,28.72,0,109.9,13.5,3.33,157.2
"2010-04-03 00:33:30",1817624,1.186,182.4,14.5,0.862,1.875,101.289,2.588,3.501,28.58,0,109.9,13.5,3.35,144.4
"2010-04-03 00:34:00",1817625,0.353,202.7,14.35,0.193,0.76,101.289,2.588,3.517,28.39,0,109.9,13.54,3.35,164.7
"2010-04-03 00:34:30",1817626,0.19,251.4,8.8,0.102,0.512,101.3088,2.639,3.547,28.25,0,109.9,13.54,3.40,213.4
"2010-04-03 00:35:00",1817627,0.055,235.1,44.43,0.2,0.542,101.3229,2.675,3.564,28.2,0,109.9,13.53,3.44,197.1
"2010-04-03 00:35:30",1817628,1.43,255.4,20.98,1.407,2.491,101.3248,2.68,3.665,28.21,0,109.9,13.5,3.44,217.4
"2010-04-03 00:36:00",1817629,2.464,262.1,29.31,1.206,5.24,101.3432,2.727,3.87,28.35,0,109.9,13.5,3.49,224.1
"2010-04-03 00:36:30",1817630,1.32,245.7,8.66,1.056,2.121,101.3474,2.737,3.667,28.06,0,109.9,13.5,3.50,207.7
"2010-04-03 00:37:00",1817631,1.194,262.8,16.61,0.553,2.023,101.3541,2.754,3.805,28.06,0,109.9,13.5,3.52,224.8
"2010-04-03 00:37:30",1817632,2.575,287.2,12.5,1.273,4.593,101.371,2.797,3.887,28.09,0,109.9,13.5,3.56,249.2
"2010-04-03 00:38:00",1817633,1.182,289.4,17.73,1.192,3.317,101.3741,2.805,3.968,28.08,0,109.9,13.5,3.57,251.4
"2010-04-03 00:38:30",1817634,1.282,324.9,29.09,1.216,2.195,101.3941,2.856,3.803,27.8,0,109.9,13.5,3.62,286.9
"2010-04-03 00:39:00",1817635,0.751,268.4,9.65,0.132,0.862,101.3957,2.861,3.832,27.66,0,109.9,13.53,3.62,230.4
"2010-04-03 00:39:30",1817636,0.475,235.8,18.53,0.123,1.07,101.4146,2.909,3.916,27.62,0,109.9,13.53,3.67,197.8
"2010-04-03 00:40:00",1817637,2.229,230.5,19.56,1.213,4.718,101.4251,2.935,4.031,27.68,0,109.9,13.49,3.70,192.5
"2010-04-03 00:40:30",1817638,1.592,321.2,21.93,1.341,3.943,101.4341,2.959,4.08,27.55,0,109.9,13.49,3.72,283.2
"2010-04-03 00:41:00",1817639,0.344,323.9,11.21,0.12,1.401,101.4564,3.016,4.034,27.25,0,109.9,13.52,3.78,285.9
"2010-04-03 00:41:30",1817640,0.433,352.8,8.16,0.161,1.62,101.4581,3.02,3.996,26.97,0,109.9,13.52,3.78,314.8
"2010-04-03 00:42:00",1817641,1.729,350.5,11.59,1.245,3.34,101.4785,3.072,4.171,27,0,109.9,13.48,3.83,312.5
"2010-04-03 00:42:30",1817642,1.397,357.9,11.65,1.163,3.337,101.492,3.106,4.197,26.66,0,109.9,13.48,3.87,319.9
"2010-04-03 00:43:00",1817643,0.885,39.68,31.24,1.013,3.298,101.5042,3.137,4.257,26.61,0,109.9,13.48,3.90,1.7
"2010-04-03 00:43:30",1817644,0.486,201.2,58.78,0.948,1.969,101.5257,3.192,4.115,26.01,0,109.9,13.48,3.96,163.2
"2010-04-03 00:44:00",1817645,0.036,44.63,30.33,0.094,1.179,101.5259,3.193,4.136,25.61,0,109.9,13.52,3.96,6.6
"2010-04-03 00:44:30",1817646,1.092,96.6,29.77,1.243,2.788,101.5259,3.193,4.171,25.79,0,109.9,13.48,3.96,58.6
"2010-04-03 00:45:00",1817647,1.16,107.5,33.77,1.199,3.586,101.4997,3.126,4.31,26.9,0,109.9,13.48,3.89,69.5
"2010-04-03 00:45:30",1817648,1.082,15.4,44.39,1.425,4.117,101.492,3.106,4.204,27.23,0,109.9,13.48,3.87,337.4
"2010-04-03 00:46:00",1817649,0.237,22.15,63.96,0.669,2.557,101.492,3.106,4.209,25.99,0,109.9,13.48,3.87,344.1
"2010-04-03 00:46:30",1817650,0.532,97.1,55.41,1.054,3.004,101.4912,3.104,4.156,26.81,0,109.9,13.49,3.87,59.1
"2010-04-03 00:47:00",1817651,0.4,163.8,6.703,0.28,1.588,101.466,3.04,4.07,26.85,0,109.9,13.52,3.80,125.8
"2010-04-03 00:47:30",1817652,1.26,167.6,23.58,1.212,3.027,101.4584,3.021,4.054,26.78,0,109.9,13.48,3.78,129.6
"2010-04-03 00:48:00",1817653,2.479,157.8,23.54,1.215,5.588,101.4581,3.02,4.272,27.04,0,110,13.48,3.78,119.8
"2010-04-03 00:48:30",1817654,1.009,211.4,7.725,0.419,2.634,101.4468,2.991,4.167,27.44,0,110,13.48,3.75,173.4
"2010-04-03 00:49:00",1817655,1.31,230.4,8.08,0.997,2.059,101.4541,3.01,4.021,27.27,0,110,13.48,3.77,192.4
"2010-04-03 00:49:30",1817656,1.896,244,16.23,1.274,3.656,101.4552,3.013,4.11,27.31,0,110,13.48,3.77,206.0
"2010-04-03 00:50:00",1817657,1.12,248.8,7.16,0.498,1.618,101.4501,2.999,3.994,26.99,0,110,13.48,3.76,210.8
"2010-04-03 00:50:30",1817658,2.474,267.3,11.23,1.348,4.027,101.4685,3.046,4.164,27.11,0,110,13.48,3.81,229.3
"2010-04-03 00:51:00",1817659,2.311,269.6,7.006,1.319,3.339,101.4834,3.084,4.036,26.98,0,110,13.48,3.85,231.6
"2010-04-03 00:51:30",1817660,2.287,263.7,7.803,1.109,3.364,101.4803,3.076,4.177,27.15,0,110,13.48,3.84,225.7
"2010-04-03 00:52:00",1817661,2.988,260.5,10.03,1.402,4.437,101.4921,3.107,4.262,27.11,0,110,13.48,3.87,222.5
"2010-04-03 00:52:30",1817662,2.714,267.3,6.875,1.238,4.367,101.507,3.145,4.205,27.02,0,110,13.48,3.91,229.3
"2010-04-03 00:53:00",1817663,1.977,257.7,6.849,0.997,3.28,101.507,3.145,4.235,27.02,0,110,13.47,3.91,219.7
"2010-04-03 00:53:30",1817664,2.295,249.5,6.417,1.015,2.771,101.5038,3.137,4.192,26.87,0,110,13.47,3.90,211.5
"2010-04-03 00:54:00",1817665,3.752,265.5,8.16,1.204,5.064,101.5154,3.166,4.283,26.98,0,110,13.47,3.93,227.5
"2010-04-03 00:54:30",1817666,2.448,246.1,7.837,1.076,3.157,101.4996,3.126,4.296,27.18,0,110,13.47,3.89,208.1
"2010-04-03 00:55:00",1817667,2.754,241,4.812,1.196,3.409,101.462,3.03,4.259,27.27,0,110,13.47,3.79,203.0
"2010-04-03 00:55:30",1817668,4.08,235,6.355,1.253,5.171,101.4278,2.942,4.321,27.95,0,110,13.47,3.70,197.0
"2010-04-03 00:56:00",1817669,4.364,231.1,8.55,1.366,5.472,101.3961,2.862,4.161,28.41,0,110,13.47,3.62,193.1
"2010-04-03 00:56:30",1817670,2.993,271.3,25.09,1.459,4.857,101.3763,2.811,4.127,27.43,0,110,13.47,3.57,233.3
"2010-04-03 00:57:00",1817671,5.077,294.7,10.58,0.592,4.124,101.3568,2.761,4.011,27.52,0,110,13.46,3.52,256.7
"2010-04-03 00:57:30",1817672,7.44,274.5,17.55,2.421,5.669,101.3577,2.763,4.087,25.53,0,110,13.46,3.53,236.5
"2010-04-03 00:58:00",1817673,11.4,278.8,6.971,1.59,6.736,101.3585,2.766,4.139,24.84,0,110,13.46,3.53,240.8
"2010-04-03 00:58:30",1817674,11.94,291.9,6.763,1.096,7.582,101.3588,2.766,4.157,24.64,0,110,13.46,3.53,253.9
"2010-04-03 00:59:00",1817675,11.81,300.2,3.825,0.288,7.631,101.3605,2.771,4.136,23.77,0,110,13.46,3.53,262.2
"2010-04-03 00:59:30",1817676,11.18,298.6,3.128,0.83,7.589,101.3614,2.773,4.145,23.47,0,110,13.46,3.53,260.6
"2010-04-03 01:00:00",1817677,9.93,301.2,5.954,0.827,7.682,101.3617,2.774,4.147,23.5,0,110,13.46,3.54,263.2
"2010-04-03 01:00:30",1817678,10.2,299.6,5.499,0.953,7.238,101.3631,2.777,4.138,23.31,0,110,13.46,3.54,261.6
"2010-04-03 01:01:00",1817679,9.95,300.7,3.304,0.711,6.952,101.3668,2.787,4.12,23.65,0,110,13.46,3.55,262.7
"2010-04-03 01:01:30",1817680,9.63,307.3,4.496,0.841,7.208,101.3677,2.789,4.143,23.61,0,110,13.46,3.55,269.3
"2010-04-03 01:02:00",1817681,9.49,306.4,5.137,0.685,6.675,101.3751,2.808,4.114,22.81,0,110,13.46,3.57,268.4
"2010-04-03 01:02:30",1817682,9.08,307.7,6.312,1.009,6.163,101.3726,2.802,4.048,22.9,0,110,13.46,3.56,269.7
"2010-04-03 01:03:00",1817683,7.044,299,6.702,1.02,3.076,101.3732,2.803,3.883,23.4,0,110,13.46,3.56,261.0
"2010-04-03 01:03:30",1817684,8.58,300.2,7.752,1.421,4.502,101.3631,2.777,3.941,23.64,0,110,13.46,3.54,262.2
"2010-04-03 01:04:00",1817685,10.97,303.3,4.693,1.207,7.271,101.3549,2.757,4.104,24.3,0,110,13.46,3.52,265.3
"2010-04-03 01:04:30",1817686,10.61,310.2,4.771,0.846,7.838,101.3541,2.754,4.086,24.63,0,110,13.46,3.52,272.2
"2010-04-03 01:05:00",1817687,10.75,314.2,7.248,0.848,8.21,101.3564,2.76,4.081,24.68,0,110,13.46,3.52,276.2
"2010-04-03 01:05:30",1817688,10.4,307.6,3.208,1.046,7.772,101.3541,2.754,4.077,24.53,0,110,13.46,3.52,269.6
"2010-04-03 01:06:00",1817689,10.48,304.1,3.878,0.7,7.473,101.3307,2.695,4.072,24.38,0,110,13.46,3.46,266.1
"2010-04-03 01:06:30",1817690,10.02,304.9,4.83,0.62,7.314,101.3225,2.674,4.031,24.57,0,109.9,13.46,3.44,266.9
"2010-04-03 01:07:00",1817691,9.65,306.8,5.812,0.808,7.157,101.3225,2.674,4.021,24.75,0,110,13.46,3.44,268.8
"2010-04-03 01:07:30",1817692,9.64,311.4,5.072,0.794,7.018,101.3106,2.643,3.991,24.76,0,110,13.46,3.40,273.4
"2010-04-03 01:08:00",1817693,10.21,311.4,4.287,0.764,6.89,101.2939,2.601,3.983,24.74,0,110,13.46,3.36,273.4
"2010-04-03 01:08:30",1817694,10.2,310.7,4.036,0.556,6.786,101.2886,2.587,3.941,23.92,0,110,13.46,3.35,272.7
"2010-04-03 01:09:00",1817695,9.98,309.4,3.2,0.696,6.996,101.2846,2.577,3.934,23.62,0,109.9,13.46,3.34,271.4
"2010-04-03 01:09:30",1817696,10.15,305.2,3.593,0.706,7.07,101.264,2.524,3.909,23.3,0,109.9,13.47,3.29,267.2
"2010-04-03 01:10:00",1817697,9.92,305.3,4.197,0.867,6.575,101.2547,2.501,3.911,23.12,0,109.9,13.47,3.26,267.3
"2010-04-03 01:10:30",1817698,9.71,307.5,4.885,0.892,6.474,101.2538,2.498,3.868,23.33,0,109.9,13.47,3.26,269.5
"2010-04-03 01:11:00",1817699,9.24,308.8,6.346,0.94,5.563,101.2377,2.457,3.729,23.35,0,109.9,13.47,3.22,270.8
"2010-04-03 01:11:30",1817700,8.31,302.5,6.715,1.099,3.721,101.2207,2.414,3.687,23.32,0,109.9,13.47,3.17,264.5
"2010-04-03 01:12:00",1817701,9.14,309.9,5.721,1.236,5.936,101.2207,2.414,3.767,23.53,0,109.9,13.47,3.17,271.9
"2010-04-03 01:12:30",1817702,9.89,313.9,3.872,0.679,7.583,101.2128,2.394,3.74,23.91,0,109.9,13.47,3.15,275.9
"2010-04-03 01:13:00",1817703,9.68,313.6,4.97,0.759,7.539,101.1916,2.34,3.786,24.24,0,109.9,13.47,3.10,275.6
"2010-04-03 01:13:30",1817704,9.38,310.4,4.97,0.72,7.712,101.1868,2.328,3.743,24.57,0,109.9,13.47,3.09,272.4
"2010-04-03 01:14:00",1817705,10.43,311.1,3.488,0.687,7.242,101.1883,2.331,3.762,24.76,0,109.9,13.47,3.09,273.1
"2010-04-03 01:14:30",1817706,10.15,313,2.569,0.88,7.019,101.1815,2.314,3.72,25.12,0,109.9,13.47,3.07,275.0
"2010-04-03 01:15:00",1817707,10.34,312.8,3.577,0.645,6.861,101.1658,2.274,3.7,25.02,0,109.9,13.47,3.03,274.8
"2010-04-03 01:15:30",1817708,9.76,309.1,5.098,0.944,6.039,101.1738,2.294,3.636,24.74,0,109.9,13.47,3.05,271.1
"2010-04-03 01:16:00",1817709,10.19,306.1,5.558,1.141,5.896,101.171,2.287,3.593,24.66,0,109.9,13.47,3.05,268.1
"2010-04-03 01:16:30",1817710,9.91,308.8,5.259,1.095,6.352,101.1547,2.245,3.59,24.55,0,109.9,13.47,3.01,270.8
"2010-04-03 01:17:00",1817711,10.8,311.4,2.848,0.644,7.672,101.1502,2.234,3.609,24.48,0,109.9,13.47,2.99,273.4
"2010-04-03 01:17:30",1817712,10.87,311.6,3.935,0.506,7.666,101.1522,2.239,3.612,24.49,0,109.9,13.48,3.00,273.6
"2010-04-03 01:18:00",1817713,10.67,311.8,3.893,1.005,7.346,101.1341,2.193,3.569,24.49,0,109.9,13.48,2.95,273.8
"2010-04-03 01:18:30",1817714,10.81,308,4.794,0.963,6.678,101.1194,2.155,3.531,24.27,0,109.9,13.48,2.92,270.0
"2010-04-03 01:19:00",1817715,10.68,308.6,4.309,1.036,6.734,101.1194,2.155,3.511,24.06,0,109.9,13.48,2.92,270.6
"2010-04-03 01:19:30",1817716,11.14,307.2,3.887,0.712,7.124,101.1194,2.155,3.532,24.21,0,109.8,13.48,2.92,269.2
"2010-04-03 01:20:00",1817717,11.67,306.6,3.703,0.725,7.208,101.1106,2.133,3.528,24.07,0,109.8,13.48,2.89,268.6
"2010-04-03 01:20:30",1817718,11.61,303.7,3.918,0.778,7.352,101.0869,2.072,3.502,23.95,0,109.8,13.49,2.83,265.7
"2010-04-03 01:21:00",1817719,11.42,303.5,4.571,0.684,7.256,101.0855,2.069,3.494,23.86,0,109.8,13.49,2.83,265.5
"2010-04-03 01:21:30",1817720,11.24,304.4,3.457,0.636,7.258,101.0855,2.069,3.472,23.73,0,109.8,13.49,2.83,266.4
"2010-04-03 01:22:00",1817721,11.61,304.7,4.434,0.498,7.31,101.0841,2.065,3.459,23.86,0,109.9,13.49,2.82,266.7
"2010-04-03 01:22:30",1817722,11.57,303.1,3.943,0.669,7.332,101.0719,2.034,3.445,24,0,109.8,13.49,2.79,265.1
"2010-04-03 01:23:00",1817723,11.79,303,4.107,0.745,7.19,101.0583,2,3.407,24.14,0,109.8,13.49,2.76,265.0
"2010-04-03 01:23:30",1817724,11.63,302.1,3.833,0.838,7.292,101.0516,1.982,3.396,24.54,0,109.8,13.49,2.74,264.1
"2010-04-03 01:24:00",1817725,12.03,302.4,2.983,0.776,7.029,101.0524,1.985,3.39,24.65,0,109.8,13.5,2.74,264.4
"2010-04-03 01:24:30",1817726,12.53,302,3.423,0.859,7.098,101.0519,1.983,3.384,24.5,0,109.8,13.5,2.74,264.0
"2010-04-03 01:25:00",1817727,11.94,299.2,4.02,0.744,7.271,101.0426,1.959,3.345,24.44,0,109.8,13.5,2.72,261.2
"2010-04-03 01:25:30",1817728,11.85,301.1,3.102,0.795,7.354,101.0282,1.923,3.326,24.37,0,109.8,13.5,2.68,263.1
"2010-04-03 01:26:00",1817729,12.13,304.3,4.032,0.539,7.331,101.0279,1.922,3.333,24.49,0,109.8,13.5,2.68,266.3
"2010-04-03 01:26:30",1817730,11.72,304.8,4.418,0.582,7.336,101.0299,1.927,3.292,24.47,0,109.8,13.5,2.69,266.8
"2010-04-03 01:27:00",1817731,11.58,305.6,4.154,0.696,7.302,101.0356,1.942,3.289,24.74,0,109.8,13.5,2.70,267.6
"2010-04-03 01:27:30",1817732,11.22,307.2,4.363,0.686,7.28,101.0368,1.945,3.292,24.96,0,109.8,13.5,2.70,269.2
"2010-04-03 01:28:00",1817733,11.09,310.5,4.27,0.632,7.221,101.0275,1.921,3.266,24.84,0,109.8,13.5,2.68,272.5
"2010-04-03 01:28:30",1817734,12.02,309.2,4.267,0.909,7.129,101.0204,1.903,3.256,24.8,0,109.8,13.5,2.66,271.2
"2010-04-03 01:29:00",1817735,12.05,306.1,3.982,0.834,7.181,101.0117,1.881,3.243,24.62,0,109.8,13.5,2.64,268.1
"2010-04-03 01:29:30",1817736,12.23,305.3,3.064,0.834,7.326,101.0123,1.882,3.231,24.62,0,109.8,13.5,2.64,267.3
"2010-04-03 01:30:00",1817737,12.22,306,3.081,0.787,7.191,101.0154,1.89,3.239,24.54,0,109.8,13.49,2.65,268.0
"2010-04-03 01:30:30",1817738,11.84,307.6,4.759,0.601,7.425,101.0171,1.894,3.216,24.57,0,109.8,13.49,2.65,269.6
"2010-04-03 01:31:00",1817739,11.51,306.7,4.338,0.601,7.42,101.0129,1.884,3.206,24.63,0,109.7,13.5,2.64,268.7
"2010-04-03 01:31:30",1817740,11.29,307.1,4.244,0.619,7.528,101.0033,1.859,3.21,24.73,0,109.7,13.5,2.62,269.1
"2010-04-03 01:32:00",1817741,11.14,306.7,3.782,0.662,7.152,100.9897,1.825,3.186,25.03,0,109.7,13.5,2.58,268.7
"2010-04-03 01:32:30",1817742,10.35,307.3,2.523,0.868,6.893,100.9843,1.811,3.175,25.22,0,109.7,13.5,2.57,269.3
"2010-04-03 01:33:00",1817743,10.02,309.8,4.672,0.647,7.126,100.984,1.81,3.186,25.37,0,109.7,13.5,2.57,271.8
"2010-04-03 01:33:30",1817744,10.53,307.5,2.99,0.786,6.946,100.984,1.81,3.17,25.55,0,109.7,13.5,2.57,269.5
"2010-04-03 01:34:00",1817745,11,309.1,3.997,0.745,6.776,100.984,1.81,3.151,25.61,0,109.7,13.5,2.57,271.1
"2010-04-03 01:34:30",1817746,10.87,305,4.436,0.763,6.939,100.984,1.81,3.139,25.55,0,109.7,13.5,2.57,267.0
"2010-04-03 01:35:00",1817747,10.82,307.2,4.023,0.878,6.91,100.9801,1.8,3.139,25.59,0,109.7,13.51,2.56,269.2
"2010-04-03 01:35:30",1817748,11.06,312.5,3.185,0.695,7.043,100.9702,1.775,3.139,25.02,0,109.7,13.51,2.53,274.5
"2010-04-03 01:36:00",1817749,10.81,309,4.135,0.711,7.057,100.9552,1.737,3.113,25.1,0,109.8,13.51,2.49,271.0
"2010-04-03 01:36:30",1817750,10.71,306.2,5.4,0.778,6.949,100.951,1.726,3.121,25.44,0,109.7,13.51,2.48,268.2
"2010-04-03 01:37:00",1817751,10.72,304.8,4.122,0.642,6.94,100.9527,1.73,3.104,25.67,0,109.7,13.51,2.49,266.8
"2010-04-03 01:37:30",1817752,10.86,304.4,4.156,0.705,7.008,100.9544,1.734,3.089,25.76,0,109.7,13.51,2.49,266.4
"2010-04-03 01:38:00",1817753,10.54,310.6,4.582,0.708,6.883,100.9598,1.748,3.084,25.8,0,109.7,13.51,2.51,272.6
"2010-04-03 01:38:30",1817754,10.25,310.9,3.879,0.898,6.817,100.9593,1.747,3.091,25.67,0,109.7,13.51,2.51,272.9
"2010-04-03 01:39:00",1817755,10.58,311.1,3.916,0.778,6.773,100.9554,1.737,3.082,25.51,0,109.7,13.51,2.50,273.1
"2010-04-03 01:39:30",1817756,10.39,311.3,2.591,0.754,6.881,100.9492,1.721,3.061,25.71,0,109.7,13.51,2.48,273.3
"2010-04-03 01:40:00",1817757,10.17,308.5,4.026,0.557,6.931,100.9419,1.702,3.05,25.73,0,109.7,13.51,2.46,270.5
"2010-04-03 01:40:30",1817758,9.69,303.9,3.52,0.863,6.507,100.9427,1.705,3.059,25.7,0,109.7,13.51,2.46,265.9
"2010-04-03 01:41:00",1817759,11.02,307.1,4.467,0.494,6.811,100.9444,1.709,3.021,25.8,0,109.7,13.51,2.47,269.1
"2010-04-03 01:41:30",1817760,10.81,311.4,3.441,0.777,6.536,100.9464,1.714,3.033,25.67,0,109.7,13.51,2.47,273.4
"2010-04-03 01:42:00",1817761,11.4,313.4,2.914,0.67,6.53,100.9487,1.72,3.008,25.69,0,109.7,13.51,2.48,275.4
"2010-04-03 01:42:30",1817762,11.41,314.4,4.561,0.734,6.703,100.9487,1.72,3.016,25.81,0,109.7,13.51,2.48,276.4
"2010-04-03 01:43:00",1817763,11.16,316.8,3.415,0.772,6.703,100.9403,1.698,2.994,25.79,0,109.7,13.51,2.46,278.8
"2010-04-03 01:43:30",1817764,11.92,318,3.35,0.843,6.932,100.9295,1.671,2.997,25.7,0,109.7,13.51,2.43,280.0
"2010-04-03 01:44:00",1817765,12.74,317.7,4.273,0.662,7.034,100.9236,1.656,2.989,25.29,0,109.7,13.51,2.41,279.7
"2010-04-03 01:44:30",1817766,12.54,314.9,4.182,0.94,7.203,100.9171,1.639,3.004,25.37,0,109.7,13.51,2.40,276.9
"2010-04-03 01:45:00",1817767,11.59,315.9,5.115,0.804,7.301,100.9168,1.638,2.984,25.48,0,109.7,13.51,2.40,277.9
"2010-04-03 01:45:30",1817768,11.9,321.9,2.77,0.99,7.334,100.9165,1.638,2.964,25.54,0,109.7,13.51,2.40,283.9
"2010-04-03 01:46:00",1817769,12.24,313.7,5.434,0.781,7.48,100.9165,1.638,2.972,25.7,0,109.7,13.51,2.40,275.7
"2010-04-03 01:46:30",1817770,12.68,309.2,3.768,0.813,7.398,100.9165,1.638,2.966,25.66,0,109.7,13.51,2.40,271.2
"2010-04-03 01:47:00",1817771,12.59,307.9,3.87,0.981,7.445,100.9165,1.638,2.966,25.78,0,109.7,13.51,2.40,269.9
"2010-04-03 01:47:30",1817772,12.41,305.4,3.936,0.864,7.56,100.9165,1.638,2.961,25.53,0,109.7,13.51,2.40,267.4
"2010-04-03 01:48:00",1817773,12.06,305.5,4.907,0.692,7.505,100.9165,1.638,2.951,25.72,0,109.7,13.51,2.40,267.5
"2010-04-03 01:48:30",1817774,11.99,304.9,4.492,0.818,7.486,100.9156,1.636,2.965,25.49,0,109.7,13.51,2.39,266.9